Location: Corcelles
(46.1547°N, 4.7234°E)
Time: 10:41:24
(UTC+00:00)

Cosmos 1544 - Pass Details

Date: 14 July 2020
Orbit: 473 x 490 km, 82.5° (Epoch: 05 August)

Event Time Altitude Azimuth Distance (km) Brightness Sun altitude
Exits shadow 02:59:58 - 183° (S) 1,936 5.7 -9.4°
Reaches altitude 10° 03:00:41 10° 182° (S) 1,636 5.3 -9.3°
Maximum altitude 03:04:15 75° 98° (E) 497 3.2 -8.9°
Drops below altitude 10° 03:07:51 10° 12° (NNE) 1,651 6.7 -8.4°
Sets 03:09:57 0° 11° (N) 2,535 7.7 -8.2°
